Regional Weather Roundup
Issued by NWS

Home | Current Version | Previous Version | Text Only | Print | Product List | Glossary On
Versions: 1 2 3 4 5 6 7 8 9 10 11 12 13 14 15 16 17 18 19 20 21 22 23 24 25 26
000
ASUS45 KBOU 141010
RWRCO

WEATHER ROUNDUP FOR COLORADO
NATIONAL WEATHER SERVICE DENVER/BOULDER CO
300 AM MST THU DEC 14 2017

NOTE: "FAIR" INDICATES FEW OR NO CLOUDS BELOW 12000 FEET WITH NO
SIGNIFICANT WEATHER AND/OR OBSTRUCTIONS TO VISIBILITY.

COZ001>005-013-030-031-141100-
...NORTHWEST COLORADO...

CITY           SKY/WX    TMP DP  RH WIND       PRES   REMARKS
CRAIG          CLOUDY    28  23  81 CALM      30.16R
HAYDEN         LGT SNOW  27  26  96 SW7       30.15S FOG     WCI  19
MEEKER         CLOUDY    30  27  88 SE6       30.15R WCI  24
RABBIT EARS PA LGT SNOW  18  14  86 NE10G20   30.09S WCI   6
STEAMBOAT SPGS CLOUDY    28  28  99 SE3       30.12S
WALDEN         CLOUDY    21  14  73 N10       30.15R WCI  10
$$

COZ006>008-011-141100-
...WEST CENTRAL VALLEYS...

CITY           SKY/WX    TMP DP  RH WIND       PRES   REMARKS
GRAND JUNCTION CLOUDY    36  34  92 NE5       30.12R
MONTROSE       CLOUDY    35  28  75 NE6       30.11R WCI  30
EAGLE          LGT SNOW  27  25  92 CALM      30.13R FOG
RIFLE          CLOUDY    33  28  81 CALM      30.12R
DELTA          CLOUDY    37  16  42 N5        30.08R
NUCLA          CLOUDY    37  28  70 NW7       30.10R
$$

COZ017>023-064>068-141100-
...SOUTHWEST COLORADO...

CITY           SKY/WX    TMP DP  RH WIND       PRES   REMARKS
DURANGO        FAIR      29   8  41 E7        29.97S WCI  22
CORTEZ         CLOUDY    38  31  76 NW5       30.02R
PAGOSA SPRINGS CLOUDY    34   4  28 CALM      29.99S
TELLURIDE      CLOUDY    28  11  50 W3        30.05S
WOLF CREEK PAS CLOUDY    19  18  93 CALM      30.08F
$$

COZ009-010-012-014-032>034-037-058>063-141100-
...CENTRAL COLORADO...

CITY           SKY/WX    TMP DP  RH WIND       PRES   REMARKS
ASPEN          LGT SNOW  27  25  92 CALM      30.06S FOG
BUENA VISTA    LGT SNOW  27  25  90 CALM      30.10R
COPPER MTN     NOT AVBL
BERTHOUD PASS  LGT SNOW   9  -4  56 S9        30.06S VSB 3/4 WCI  -5
COTTONWOOD PAS LGT SNOW  28  27  93 CALM      30.07S VSB 1
GUNNISON       FAIR      30  15  53 VRB3      30.03R
KREMMLING      LGT SNOW  32  30  93 CALM      30.12R
LEADVILLE      LGT SNOW  19  17  92 S7        30.04S VSB 1   WCI  10
MONARCH PASS   SNOW      14  10  85 E15       30.14S VSB<1/4 WCI  -1
SALIDA         CLOUDY    29  26  88 SE6       30.17S WCI  22
SUNLIGHT       SNOW      18  16  93 NW3       30.11S VSB 1/2
WILKERSON PASS LGT SNOW  14  12  92 NE3       30.10R
$$

COZ069>075-141100-
...SAN LUIS VALLEY/SANGRE DE CRISTO MOUNTAINS...

CITY           SKY/WX    TMP DP  RH WIND       PRES   REMARKS
ALAMOSA        CLOUDY    33  10  38 E16       29.99S WCI  23
DEL NORTE      CLOUDY    35  13  40 E6        30.02S WCI  30
LA VETA PASS   CLOUDY    19  10  68 NE18        N/A  WCI   4
SAGUACHE       LGT SNOW  32  27  80 S3        30.03R
$$

COZ035-036-038>040-141100-
...NORTHERN COLORADO FRONT RANGE...

CITY           SKY/WX    TMP DP  RH WIND       PRES   REMARKS
DENVER INTL AP LGT SNOW  29  26  89 N10       30.20R FOG     WCI  20
DMNS CITY PARK NOT AVBL
AURORA         FLURRIES  28  28  99 N8        30.20R WCI  20
FRONT RANGE AP LGT SNOW  32  30  94 N12       30.20R WCI  23
ERIE MUNI ARPT LGT SNOW  31  29  93 CALM      30.27R
BOULDER MUN AP LGT SNOW  32  30  93 CALM      30.21R
CENTENNIAL     LGT SNOW  28  26  92 N12       30.18R FOG     WCI  18
BROOMFIELD     LGT SNOW  30  30 100 N7        30.21R WCI  23
FORT COLLINS   CLOUDY    30  28  92 N8G16     30.20S WCI  22
LONGMONT       LGT SNOW  33  30  89 CALM      30.23R
$$

COZ041-046-047-076>085-087-088-141100-
...PIKES PEAK/PALMER DIVIDE AND SOUTHERN FOOTHILLS...

CITY           SKY/WX    TMP DP  RH WIND       PRES   REMARKS
COLO. SPRINGS  LGT SNOW  30  26  85 NW5       30.16R FOG     WCI  25
A. F. ACADEMY  FLURRIES  28  24  88 NW8       30.14R WCI  19
SCHRIEVER AFB  FLURRIES  28  25  90 NE6       30.15S WCI  21
CHEYENNE MTN   LGT SNOW  26  24  92 NW9G20    30.08R VSB 7/8 WCI  16
ELLICOTT       LGT SNOW N/A N/A N/A N3        30.14S
FALCON         CLOUDY    27  23  87 N8        30.14S WCI  18
FORT CARSON    LGT SNOW  29  28  95 NE5       30.15R FOG     WCI  24
LIMON          LGT SNOW  28  27  96 NW12      30.16R FOG     WCI  18
MONUMENT HILL  LGT SNOW  25  23  93 N10       30.16S WCI  15
CANON CITY     CLOUDY    36  28  75 NE14      30.14R
WALSENBURG     CLOUDY    32  14  47 CALM      30.13R
TRINIDAD       MOCLDY    31  14  49 N5        30.12S WCI  26
$$

COZ042>045-048>051-090-091-141100-
...NORTHEAST COLORADO...

CITY           SKY/WX    TMP DP  RH WIND       PRES   REMARKS
GREELEY ARPT   FAIR      34  23  64 NW10      30.20S WCI  26
AKRON          LGT SNOW  30  27  88 NW14      30.15S FOG     WCI  19
BURLINGTON     FLURRIES  32  27  81 N14       30.15R WCI  22
WRAY           CLOUDY    32  32 100 W7        30.16R WCI  26
YUMA           FLURRIES  30  28  93 W9        30.15S WCI  22
STERLING       CLOUDY    36  27  69 NW8       30.15S
HOLYOKE        LGT SNOW  36  32  87 NW7       30.14S
FORT MORGAN    CLOUDY    30  29  95 W5        30.18S WCI  25
$$

COZ086-089-092>099-141100-
...SOUTHEAST COLORADO...

CITY           SKY/WX    TMP DP  RH WIND       PRES   REMARKS
PUEBLO         CLOUDY    34  30  85 N17       30.17R WCI  23
LA JUNTA       CLOUDY    37  16  42 N10       30.16R
LAMAR          MOCLDY    36  17  46 N3        30.13R
SPRINGFIELD      N/A     33  17  51 N8        30.11R WCI  26
$$




USA.gov is the U.S. government's official web portal to all federal, state and local government web resources and services.